User: anonymous   Login
Location: Newark
(53.2933°N, 6.3959°W)
Time: 23:47:20
(UTC+00:00)
Language:

Envisat - Orbit

View from above orbital plane
View from above orbital plane
View from above satellite
View from above satellite

Ground track
Ground track

The orbit data is extracted from the following two-line orbital elements,

1 27386U 02009A   21138.60724691  .00000027  00000-0  22368-4 0  9991
2 27386  98.1482 134.1897 0001274  85.9817  26.1931 14.38025884  6781
Epoch (UTC): 18 May 2021 14:34:26
Eccentricity: 0.0001274
inclination: 98.1482°
perigee height: 764 km
apogee height: 766 km
right ascension of ascending node: 134.1897°
argument of perigee: 85.9817°
revolutions per day: 14.38025884
mean anomaly at epoch: 26.1931°
orbit number at epoch: 678

The dashed part of the orbit path shows where the satellite is in the earth's shadow,  

DLR